| time (UTC) | temp F | wind direction | speed MPH | gust MPH | rain 1hr in | rain 24hr in | rain mn in | humidity % | barometer mb |
| 20260508132503 | 65 | 298 | 2.0 | 7.0 | 0.00 | 0.00 | 0.00 | 59 | 1014.0 |
| 20260508132003 | 66 | 274 | 4.0 | 7.0 | 0.00 | 0.00 | 0.00 | 57 | 1014.2 |
| 20260508131503 | 66 | 263 | 2.0 | 7.0 | 0.00 | 0.00 | 0.00 | 56 | 1014.1 |
| 20260508131003 | 67 | 117 | 1.0 | 5.0 | 0.00 | 0.00 | 0.00 | 56 | 1014.0 |
| 20260508130503 | 67 | 233 | 4.0 | 7.0 | 0.00 | 0.00 | 0.00 | 55 | 1014.1 |
| 20260508130003 | 67 | 252 | 6.0 | 8.0 | 0.00 | 0.00 | 0.00 | 55 | 1014.2 |
| 20260508125524 | 67 | 253 | 5.0 | 8.0 | 0.00 | 0.00 | 0.00 | 54 | 1014.2 |
| 20260508125003 | 67 | 225 | 2.0 | 8.0 | 0.00 | 0.00 | 0.00 | 54 | 1014.2 |
| 20260508124524 | 67 | 193 | 3.0 | 5.0 | 0.00 | 0.00 | 0.00 | 54 | 1014.0 |
| 20260508124024 | 67 | 160 | 3.0 | 5.0 | 0.00 | 0.00 | 0.00 | 54 | 1014.0 |
| 20260508123503 | 68 | 8 | 3.0 | 5.0 | 0.00 | 0.00 | 0.00 | 54 | 1014.2 |
| 20260508123003 | 68 | 244 | 4.0 | 8.0 | 0.00 | 0.00 | 0.00 | 55 | 1014.1 |
| 20260508122503 | 68 | 211 | 5.0 | 8.0 | 0.00 | 0.00 | 0.00 | 55 | 1014.0 |
| 20260508122003 | 68 | 192 | 3.0 | 7.0 | 0.00 | 0.00 | 0.00 | 56 | 1014.0 |
| 20260508121503 | 67 | 217 | 3.0 | 5.0 | 0.00 | 0.00 | 0.00 | 57 | 1014.2 |
| 20260508121003 | 67 | 229 | 4.0 | 6.0 | 0.00 | 0.00 | 0.00 | 56 | 1014.1 |
| 20260508120503 | 67 | 184 | 5.0 | 7.0 | 0.00 | 0.00 | 0.00 | 56 | 1014.1 |
| 20260508120003 | 67 | 186 | 6.0 | 7.0 | 0.00 | 0.00 | 0.00 | 56 | 1014.2 |
| 20260508115508 | 67 | 226 | 7.0 | 11.0 | 0.00 | 0.00 | 0.00 | 56 | 1014.2 |
| 20260508115003 | 67 | 246 | 7.0 | 11.0 | 0.00 | 0.00 | 0.00 | 56 | 1014.4 |
| 20260508114503 | 67 | 195 | 6.0 | 11.0 | 0.00 | 0.00 | 0.00 | 56 | 1014.2 |
| 20260508114024 | 66 | 138 | 5.0 | 8.0 | 0.00 | 0.00 | 0.00 | 56 | 1014.4 |
| 20260508113503 | 66 | 130 | 6.0 | 8.0 | 0.00 | 0.00 | 0.00 | 57 | 1014.4 |
| 20260508113003 | 66 | 170 | 5.0 | 8.0 | 0.00 | 0.00 | 0.00 | 56 | 1014.3 |
| 20260508112503 | 67 | 219 | 6.0 | 10.0 | 0.00 | 0.00 | 0.00 | 57 | 1014.5 |
| 20260508112003 | 67 | 205 | 7.0 | 10.0 | 0.00 | 0.00 | 0.00 | 57 | 1014.6 |
| 20260508111503 | 67 | 218 | 5.0 | 8.0 | 0.00 | 0.00 | 0.00 | 58 | 1014.4 |
| 20260508111003 | 67 | 286 | 3.0 | 6.0 | 0.00 | 0.00 | 0.00 | 58 | 1014.6 |
| 20260508110524 | 67 | 270 | 3.0 | 5.0 | 0.00 | 0.00 | 0.00 | 58 | 1014.6 |
| 20260508110003 | 67 | 181 | 4.0 | 5.0 | 0.00 | 0.00 | 0.00 | 58 | 1014.5 |
| 20260508105503 | 67 | 197 | 4.0 | 8.0 | 0.00 | 0.00 | 0.00 | 58 | 1014.6 |
| 20260508105003 | 67 | 217 | 5.0 | 8.0 | 0.00 | 0.00 | 0.00 | 59 | 1014.7 |
| 20260508104503 | 67 | 208 | 4.0 | 6.0 | 0.00 | 0.00 | 0.00 | 59 | 1014.7 |
| 20260508104024 | 67 | 170 | 5.0 | 9.0 | 0.00 | 0.00 | 0.00 | 60 | 1014.7 |
| 20260508103503 | 66 | 204 | 6.0 | 9.0 | 0.00 | 0.00 | 0.00 | 59 | 1014.7 |
| 20260508103003 | 66 | 211 | 5.0 | 9.0 | 0.00 | 0.00 | 0.00 | 60 | 1014.7 |
| 20260508102524 | 66 | 202 | 6.0 | 9.0 | 0.00 | 0.00 | 0.00 | 60 | 1014.9 |
| 20260508102003 | 66 | 215 | 4.0 | 9.0 | 0.00 | 0.00 | 0.00 | 61 | 1014.8 |
| 20260508101503 | 65 | 59 | 2.0 | 4.0 | 0.00 | 0.00 | 0.00 | 61 | 1014.9 |
| 20260508101003 | 65 | 139 | 4.0 | 8.0 | 0.00 | 0.00 | 0.00 | 60 | 1014.8 |
| 20260508100503 | 65 | 181 | 6.0 | 8.0 | 0.00 | 0.00 | 0.00 | 60 | 1014.8 |
| 20260508100003 | 65 | 203 | 5.0 | 8.0 | 0.00 | 0.00 | 0.00 | 61 | 1014.9 |
| 20260508095503 | 65 | 243 | 4.0 | 6.0 | 0.00 | 0.00 | 0.00 | 61 | 1014.9 |
| 20260508095003 | 65 | 263 | 5.0 | 8.0 | 0.00 | 0.00 | 0.00 | 61 | 1014.8 |
| 20260508094503 | 65 | 221 | 6.0 | 8.0 | 0.00 | 0.00 | 0.00 | 61 | 1014.8 |
| 20260508094003 | 65 | 208 | 6.0 | 8.0 | 0.00 | 0.00 | 0.00 | 61 | 1014.9 |
| 20260508093503 | 65 | 252 | 5.0 | 8.0 | 0.00 | 0.00 | 0.00 | 61 | 1014.8 |
| 20260508093003 | 64 | 261 | 5.0 | 6.0 | 0.00 | 0.00 | 0.00 | 62 | 1014.8 |
| 20260508092524 | 64 | 226 | 6.0 | 8.0 | 0.00 | 0.00 | 0.00 | 61 | 1014.9 |
| 20260508092003 | 64 | 197 | 7.0 | 8.0 | 0.00 | 0.00 | 0.00 | 61 | 1014.8 |
| 20260508091503 | 64 | 173 | 7.0 | 8.0 | 0.00 | 0.00 | 0.00 | 62 | 1014.8 |
| 20260508091024 | 64 | 116 | 7.0 | 8.0 | 0.00 | 0.00 | 0.00 | 62 | 1014.8 |
| 20260508090503 | 63 | 96 | 6.0 | 7.0 | 0.00 | 0.00 | 0.00 | 65 | 1014.9 |
| 20260508090024 | 63 | 127 | 6.0 | 8.0 | 0.00 | 0.00 | 0.00 | 65 | 1014.7 |
| 20260508085503 | 63 | 133 | 7.0 | 8.0 | 0.00 | 0.00 | 0.00 | 65 | 1014.9 |
| 20260508085003 | 62 | 152 | 6.0 | 8.0 | 0.00 | 0.00 | 0.00 | 65 | 1014.9 |
| 20260508084503 | 62 | 177 | 6.0 | 8.0 | 0.00 | 0.00 | 0.00 | 65 | 1014.8 |
| 20260508084003 | 62 | 195 | 5.0 | 8.0 | 0.00 | 0.00 | 0.00 | 66 | 1014.8 |
| 20260508083503 | 62 | 179 | 5.0 | 8.0 | 0.00 | 0.00 | 0.00 | 66 | 1014.7 |
| 20260508083003 | 62 | 184 | 7.0 | 9.0 | 0.00 | 0.00 | 0.00 | 66 | 1014.8 |
| 20260508082503 | 62 | 217 | 7.0 | 9.0 | 0.00 | 0.00 | 0.00 | 66 | 1014.8 |
| 20260508082003 | 62 | 219 | 6.0 | 8.0 | 0.00 | 0.00 | 0.00 | 67 | 1014.6 |
| 20260508081503 | 62 | 206 | 6.0 | 8.0 | 0.00 | 0.00 | 0.00 | 67 | 1014.8 |
| 20260508081003 | 63 | 219 | 4.0 | 8.0 | 0.00 | 0.00 | 0.00 | 68 | 1014.7 |
| 20260508080503 | 63 | 281 | 2.0 | 3.0 | 0.00 | 0.00 | 0.00 | 69 | 1014.6 |
| 20260508080024 | 63 | 317 | 2.0 | 4.0 | 0.00 | 0.00 | 0.00 | 69 | 1014.8 |
| 20260508075503 | 62 | 219 | 2.0 | 4.0 | 0.00 | 0.00 | 0.00 | 69 | 1014.6 |
| 20260508075024 | 62 | 252 | 3.0 | 4.0 | 0.00 | 0.00 | 0.00 | 69 | 1014.6 |
| 20260508074524 | 62 | 289 | 2.0 | 4.0 | 0.00 | 0.00 | 0.00 | 70 | 1014.6 |
| 20260508074003 | 63 | 330 | 1.0 | 3.0 | 0.00 | 0.00 | 0.00 | 70 | 1014.5 |
| 20260508073503 | 62 | 350 | 2.0 | 3.0 | 0.00 | 0.00 | 0.00 | 70 | 1014.4 |
| 20260508073003 | 62 | 1 | 2.0 | 3.0 | 0.00 | 0.00 | 0.00 | 71 | 1014.5 |
| 20260508072503 | 62 | 352 | 2.0 | 2.0 | 0.00 | 0.00 | 0.00 | 72 | 1014.4 |
| 20260508072003 | 61 | 333 | 2.0 | 3.0 | 0.00 | 0.00 | 0.00 | 72 | 1014.4 |
| 20260508071503 | 60 | 340 | 2.0 | 3.0 | 0.00 | 0.00 | 0.00 | 72 | 1014.4 |
| 20260508071024 | 60 | 356 | 3.0 | 3.0 | 0.00 | 0.00 | 0.00 | 72 | 1014.4 |
| 20260508070503 | 60 | 358 | 2.0 | 3.0 | 0.00 | 0.00 | 0.00 | 74 | 1014.4 |
| 20260508070003 | 59 | 330 | 1.0 | 3.0 | 0.00 | 0.00 | 0.00 | 74 | 1014.3 |
| 20260508065503 | 59 | 326 | 2.0 | 4.0 | 0.00 | 0.00 | 0.00 | 74 | 1014.2 |
| 20260508065003 | 58 | 322 | 1.0 | 4.0 | 0.00 | 0.00 | 0.00 | 75 | 1014.1 |
| 20260508064503 | 58 | 336 | 1.0 | 4.0 | 0.00 | 0.00 | 0.00 | 75 | 1014.2 |
| 20260508064003 | 57 | 341 | 0.0 | 2.0 | 0.00 | 0.00 | 0.00 | 76 | 1014.1 |
| 20260508063524 | 57 | 360 | 0.0 | 2.0 | 0.00 | 0.00 | 0.00 | 76 | 1014.1 |
| 20260508063003 | 56 | 3 | 1.0 | 2.0 | 0.00 | 0.00 | 0.00 | 75 | 1014.1 |
| 20260508062503 | 56 | 7 | 2.0 | 4.0 | 0.00 | 0.00 | 0.00 | 75 | 1014.0 |
| 20260508062003 | 56 | 15 | 3.0 | 4.0 | 0.00 | 0.00 | 0.00 | 76 | 1014.0 |
| 20260508061503 | 56 | 15 | 3.0 | 4.0 | 0.00 | 0.00 | 0.00 | 76 | 1013.9 |
| 20260508061003 | 56 | 6 | 3.0 | 4.0 | 0.00 | 0.00 | 0.00 | 76 | 1013.9 |
| 20260508060503 | 56 | 6 | 3.0 | 4.0 | 0.00 | 0.00 | 0.00 | 77 | 1013.9 |
| 20260508060003 | 56 | 4 | 3.0 | 4.0 | 0.00 | 0.00 | 0.00 | 77 | 1013.9 |
| 20260508055503 | 55 | 360 | 3.0 | 4.0 | 0.00 | 0.00 | 0.00 | 77 | 1013.8 |
| 20260508055024 | 55 | 5 | 3.0 | 4.0 | 0.00 | 0.00 | 0.00 | 77 | 1013.7 |
| 20260508054503 | 55 | 17 | 3.0 | 5.0 | 0.00 | 0.00 | 0.00 | 77 | 1013.8 |
| 20260508054003 | 55 | 11 | 3.0 | 5.0 | 0.00 | 0.00 | 0.00 | 78 | 1013.7 |
| 20260508053503 | 55 | 9 | 4.0 | 6.0 | 0.00 | 0.00 | 0.00 | 78 | 1013.6 |
| 20260508053003 | 55 | 14 | 5.0 | 6.0 | 0.00 | 0.00 | 0.00 | 78 | 1013.6 |
| 20260508052503 | 55 | 9 | 4.0 | 6.0 | 0.00 | 0.00 | 0.00 | 78 | 1013.6 |
| 20260508052024 | 55 | 5 | 4.0 | 5.0 | 0.00 | 0.00 | 0.00 | 78 | 1013.5 |
| 20260508051503 | 55 | 356 | 5.0 | 5.0 | 0.00 | 0.00 | 0.00 | 78 | 1013.4 |
| 20260508051003 | 54 | 332 | 4.0 | 5.0 | 0.00 | 0.00 | 0.00 | 80 | 1013.4 |
| 20260508050524 | 54 | 343 | 4.0 | 5.0 | 0.00 | 0.00 | 0.00 | 80 | 1013.2 |
| 20260508050003 | 54 | 6 | 5.0 | 5.0 | 0.00 | 0.00 | 0.00 | 80 | 1013.2 |
| 20260508045503 | 53 | 3 | 5.0 | 5.0 | 0.00 | 0.00 | 0.00 | 80 | 1013.3 |
| 20260508045018 | 53 | 2 | 4.0 | 5.0 | 0.00 | 0.00 | 0.00 | 80 | 1013.2 |
| 20260508044503 | 53 | 10 | 5.0 | 6.0 | 0.00 | 0.00 | 0.00 | 80 | 1013.2 |
| 20260508044003 | 53 | 16 | 5.0 | 6.0 | 0.00 | 0.00 | 0.00 | 80 | 1013.2 |
| 20260508043503 | 53 | 14 | 5.0 | 6.0 | 0.00 | 0.00 | 0.00 | 79 | 1013.1 |
| 20260508043003 | 52 | 8 | 5.0 | 6.0 | 0.00 | 0.00 | 0.00 | 79 | 1013.2 |
| 20260508042503 | 52 | 5 | 2.0 | 5.0 | 0.00 | 0.00 | 0.00 | 78 | 1013.2 |
| 20260508042003 | 53 | 7 | 1.0 | 2.0 | 0.00 | 0.00 | 0.00 | 78 | 1013.0 |
| 20260508041504 | 53 | 7 | 2.0 | 3.0 | 0.00 | 0.00 | 0.00 | 78 | 1013.1 |
| 20260508041024 | 53 | 12 | 1.0 | 3.0 | 0.00 | 0.00 | 0.00 | 78 | 1013.0 |
| 20260508040503 | 53 | 20 | 1.0 | 2.0 | 0.00 | 0.00 | 0.00 | 77 | 1013.0 |
| 20260508040003 | 53 | 15 | 2.0 | 3.0 | 0.00 | 0.00 | 0.00 | 77 | 1013.0 |
| 20260508035524 | 53 | 11 | 3.0 | 3.0 | 0.00 | 0.00 | 0.00 | 77 | 1013.0 |
| 20260508035003 | 53 | 11 | 2.0 | 4.0 | 0.00 | 0.00 | 0.00 | 77 | 1012.9 |
| 20260508034503 | 53 | 20 | 1.0 | 4.0 | 0.00 | 0.00 | 0.00 | 77 | 1013.0 |
| 20260508034003 | 53 | 46 | 0.0 | 2.0 | 0.00 | 0.00 | 0.00 | 77 | 1013.0 |
| 20260508033524 | 53 | 0 | 0.0 | 0.0 | 0.00 | 0.00 | 0.00 | 77 | 1013.0 |
| 20260508033003 | 54 | 12 | 1.0 | 3.0 | 0.00 | 0.00 | 0.00 | 77 | 1013.1 |
| 20260508032503 | 54 | 14 | 2.0 | 3.0 | 0.00 | 0.00 | 0.00 | 78 | 1013.1 |
| 20260508032003 | 53 | 23 | 1.0 | 3.0 | 0.00 | 0.00 | 0.00 | 78 | 1012.9 |
| 20260508031524 | 53 | 54 | 1.0 | 5.0 | 0.00 | 0.00 | 0.00 | 78 | 1013.0 |
| 20260508031024 | 53 | 43 | 3.0 | 5.0 | 0.00 | 0.00 | 0.00 | 78 | 1012.9 |
| 20260508030503 | 53 | 43 | 4.0 | 9.0 | 0.00 | 0.00 | 0.00 | 79 | 1012.8 |
| 20260508030003 | 53 | 47 | 7.0 | 9.0 | 0.00 | 0.00 | 0.00 | 79 | 1012.7 |
| 20260508025503 | 53 | 47 | 7.0 | 9.0 | 0.00 | 0.00 | 0.00 | 79 | 1012.9 |
| 20260508025003 | 53 | 47 | 5.0 | 8.0 | 0.00 | 0.00 | 0.00 | 78 | 1012.7 |
| 20260508024524 | 53 | 54 | 5.0 | 6.0 | 0.00 | 0.00 | 0.00 | 78 | 1012.8 |
| 20260508024003 | 53 | 49 | 6.0 | 7.0 | 0.00 | 0.00 | 0.00 | 78 | 1012.8 |
| 20260508023503 | 53 | 46 | 5.0 | 7.0 | 0.00 | 0.00 | 0.00 | 78 | 1012.8 |
| 20260508023003 | 53 | 38 | 5.0 | 7.0 | 0.00 | 0.00 | 0.00 | 78 | 1012.8 |
| 20260508022503 | 53 | 17 | 6.0 | 7.0 | 0.00 | 0.00 | 0.00 | 78 | 1012.5 |
| 20260508022024 | 53 | 15 | 5.0 | 7.0 | 0.00 | 0.00 | 0.00 | 78 | 1012.5 |
| 20260508021524 | 53 | 13 | 4.0 | 6.0 | 0.00 | 0.00 | 0.00 | 78 | 1012.4 |
| 20260508021003 | 53 | 16 | 3.0 | 4.0 | 0.00 | 0.00 | 0.00 | 78 | 1012.8 |
| 20260508020503 | 53 | 19 | 3.0 | 4.0 | 0.00 | 0.01 | 0.00 | 78 | 1012.5 |
| 20260508020003 | 53 | 13 | 3.0 | 4.0 | 0.00 | 0.01 | 0.00 | 78 | 1012.5 |
| 20260508015503 | 53 | 6 | 4.0 | 4.0 | 0.00 | 0.01 | 0.00 | 78 | 1012.8 |
| 20260508015003 | 53 | 11 | 4.0 | 4.0 | 0.00 | 0.01 | 0.00 | 78 | 1012.7 |
| 20260508014503 | 53 | 15 | 4.0 | 5.0 | 0.00 | 0.01 | 0.00 | 78 | 1012.8 |
| 20260508014003 | 53 | 7 | 4.0 | 5.0 | 0.00 | 0.01 | 0.00 | 78 | 1012.7 |
| 20260508013524 | 53 | 1 | 4.0 | 5.0 | 0.00 | 0.01 | 0.00 | 78 | 1012.3 |
| 20260508013003 | 53 | 5 | 5.0 | 5.0 | 0.00 | 0.01 | 0.00 | 78 | 1012.5 |
| 20260508012524 | 53 | 13 | 4.0 | 6.0 | 0.00 | 0.01 | 0.00 | 78 | 1012.5 |
| 20260508012024 | 53 | 14 | 5.0 | 6.0 | 0.00 | 0.01 | 0.00 | 78 | 1012.4 |
| 20260508011503 | 53 | 4 | 6.0 | 6.0 | 0.00 | 0.01 | 0.00 | 78 | 1012.5 |
| 20260508011003 | 53 | 2 | 5.0 | 7.0 | 0.00 | 0.01 | 0.00 | 77 | 1012.4 |
| 20260508010503 | 53 | 9 | 5.0 | 7.0 | 0.00 | 0.01 | 0.00 | 77 | 1012.5 |
| 20260508010003 | 53 | 10 | 4.0 | 6.0 | 0.00 | 0.01 | 0.00 | 77 | 1012.5 |
| 20260508005503 | 53 | 8 | 4.0 | 4.0 | 0.00 | 0.01 | 0.00 | 77 | 1012.7 |
| 20260508005024 | 53 | 9 | 4.0 | 5.0 | 0.00 | 0.01 | 0.00 | 77 | 1012.5 |
| 20260508004524 | 53 | 11 | 4.0 | 5.0 | 0.00 | 0.01 | 0.00 | 76 | 1012.7 |
| 20260508004003 | 53 | 7 | 3.0 | 4.0 | 0.00 | 0.01 | 0.00 | 75 | 1012.8 |
| 20260508003503 | 53 | 4 | 2.0 | 3.0 | 0.00 | 0.01 | 0.00 | 75 | 1012.8 |
| 20260508003003 | 53 | 1 | 2.0 | 3.0 | 0.00 | 0.02 | 0.00 | 75 | 1012.8 |
| 20260508002503 | 54 | 360 | 1.0 | 2.0 | 0.00 | 0.02 | 0.00 | 74 | 1012.8 |
| 20260508002003 | 54 | 5 | 1.0 | 2.0 | 0.00 | 0.02 | 0.00 | 74 | 1012.7 |
| 20260508001503 | 54 | 15 | 1.0 | 2.0 | 0.00 | 0.02 | 0.00 | 74 | 1012.9 |
| 20260508001003 | 54 | 22 | 1.0 | 2.0 | 0.00 | 0.02 | 0.00 | 72 | 1012.9 |
| 20260508000503 | 54 | 21 | 1.0 | 2.0 | 0.00 | 0.02 | 0.00 | 74 | 1012.9 |
| 20260508000024 | 54 | 35 | 1.0 | 4.0 | 0.00 | 0.02 | 0.00 | 74 | 1012.8 |
| 20260507235503 | 54 | 39 | 2.0 | 4.0 | 0.00 | 0.02 | 0.00 | 74 | 1012.7 |
| 20260507235003 | 54 | 37 | 2.0 | 4.0 | 0.00 | 0.02 | 0.00 | 74 | 1012.7 |
| 20260507234503 | 54 | 22 | 0.0 | 3.0 | 0.00 | 0.02 | 0.00 | 73 | 1012.7 |
| 20260507234003 | 54 | 0 | 0.0 | 0.0 | 0.00 | 0.02 | 0.00 | 73 | 1012.5 |
| 20260507233503 | 54 | 0 | 0.0 | 0.0 | 0.00 | 0.02 | 0.00 | 73 | 1012.7 |
| 20260507233003 | 55 | 0 | 0.0 | 0.0 | 0.00 | 0.02 | 0.00 | 70 | 1012.5 |
| 20260507232503 | 55 | 0 | 0.0 | 0.0 | 0.00 | 0.02 | 0.00 | 70 | 1012.8 |
| 20260507232003 | 55 | 22 | 0.0 | 1.0 | 0.00 | 0.02 | 0.00 | 70 | 1012.7 |
| 20260507231525 | 55 | 9 | 0.0 | 1.0 | 0.00 | 0.02 | 0.00 | 70 | 1012.9 |
| 20260507231003 | 55 | 22 | 0.0 | 1.0 | 0.00 | 0.02 | 0.00 | 70 | 1012.9 |
| 20260507230503 | 55 | 22 | 0.0 | 1.0 | 0.00 | 0.02 | 0.00 | 69 | 1012.8 |
| 20260507230024 | 55 | 22 | 0.0 | 1.0 | 0.00 | 0.02 | 0.00 | 68 | 1012.9 |
| 20260507225503 | 55 | 0 | 0.0 | 0.0 | 0.00 | 0.02 | 0.00 | 67 | 1012.9 |
| 20260507225003 | 55 | 0 | 0.0 | 0.0 | 0.00 | 0.02 | 0.00 | 67 | 1012.8 |
| 20260507224504 | 55 | 0 | 0.0 | 0.0 | 0.00 | 0.02 | 0.00 | 67 | 1012.9 |
| 20260507224003 | 56 | 0 | 0.0 | 0.0 | 0.00 | 0.02 | 0.00 | 67 | 1012.9 |
| 20260507223524 | 56 | 0 | 0.0 | 0.0 | 0.00 | 0.02 | 0.00 | 67 | 1013.0 |
| 20260507223003 | 56 | 46 | 0.0 | 2.0 | 0.00 | 0.02 | 0.00 | 66 | 1012.9 |
| 20260507222524 | 56 | 46 | 0.0 | 2.0 | 0.00 | 0.04 | 0.00 | 66 | 1012.9 |
| 20260507222003 | 56 | 0 | 0.0 | 0.0 | 0.00 | 0.04 | 0.00 | 66 | 1012.9 |
| 20260507221524 | 56 | 0 | 0.0 | 0.0 | 0.00 | 0.04 | 0.00 | 67 | 1012.9 |
| 20260507221024 | 56 | 0 | 0.0 | 0.0 | 0.00 | 0.04 | 0.00 | 66 | 1012.7 |
| 20260507220503 | 57 | 85 | 0.0 | 1.0 | 0.00 | 0.04 | 0.00 | 65 | 1012.9 |
| 20260507220004 | 57 | 86 | 1.0 | 2.0 | 0.00 | 0.04 | 0.00 | 65 | 1012.7 |
| 20260507215503 | 57 | 71 | 2.0 | 4.0 | 0.00 | 0.04 | 0.04 | 65 | 1012.7 |
| 20260507215003 | 57 | 65 | 3.0 | 4.0 | 0.00 | 0.04 | 0.04 | 64 | 1012.7 |
| 20260507214503 | 58 | 65 | 3.0 | 4.0 | 0.00 | 0.04 | 0.04 | 64 | 1012.8 |
| 20260507214003 | 58 | 67 | 2.0 | 4.0 | 0.00 | 0.05 | 0.04 | 64 | 1012.5 |
| 20260507213503 | 58 | 67 | 1.0 | 4.0 | 0.00 | 0.05 | 0.04 | 64 | 1012.5 |
| 20260507213003 | 58 | 0 | 0.0 | 0.0 | 0.00 | 0.05 | 0.04 | 64 | 1012.5 |
| 20260507212524 | 58 | 67 | 0.0 | 1.0 | 0.00 | 0.05 | 0.04 | 63 | 1012.7 |
| 20260507212003 | 58 | 67 | 0.0 | 1.0 | 0.00 | 0.05 | 0.04 | 62 | 1012.5 |
| 20260507211503 | 58 | 0 | 0.0 | 0.0 | 0.00 | 0.05 | 0.04 | 62 | 1012.7 |
| 20260507211003 | 59 | 0 | 0.0 | 0.0 | 0.00 | 0.05 | 0.04 | 62 | 1012.5 |
| 20260507210503 | 59 | 0 | 0.0 | 0.0 | 0.00 | 0.05 | 0.04 | 61 | 1012.5 |
| 20260507210003 | 59 | 0 | 0.0 | 0.0 | 0.00 | 0.06 | 0.04 | 61 | 1012.5 |
| 20260507205503 | 59 | 0 | 0.0 | 0.0 | 0.00 | 0.06 | 0.04 | 61 | 1012.4 |
| 20260507205003 | 59 | 0 | 0.0 | 0.0 | 0.00 | 0.06 | 0.04 | 61 | 1012.5 |
| 20260507204503 | 59 | 0 | 0.0 | 0.0 | 0.00 | 0.09 | 0.04 | 60 | 1012.4 |
| 20260507204024 | 59 | 0 | 0.0 | 0.0 | 0.00 | 0.11 | 0.04 | 60 | 1012.5 |
| 20260507203503 | 59 | 0 | 0.0 | 0.0 | 0.00 | 0.11 | 0.04 | 59 | 1012.3 |
| 20260507203003 | 59 | 0 | 0.0 | 0.0 | 0.00 | 0.11 | 0.04 | 58 | 1012.5 |
| 20260507202503 | 59 | 0 | 0.0 | 0.0 | 0.00 | 0.11 | 0.04 | 58 | 1012.3 |
| 20260507202024 | 60 | 0 | 0.0 | 0.0 | 0.00 | 0.11 | 0.04 | 58 | 1012.3 |
| 20260507201503 | 60 | 0 | 0.0 | 0.0 | 0.00 | 0.11 | 0.04 | 58 | 1012.2 |
| 20260507201003 | 60 | 0 | 0.0 | 0.0 | 0.00 | 0.11 | 0.04 | 58 | 1012.1 |
| 20260507200503 | 60 | 0 | 0.0 | 0.0 | 0.00 | 0.11 | 0.04 | 58 | 1012.1 |
| 20260507200024 | 60 | 0 | 0.0 | 0.0 | 0.00 | 0.11 | 0.04 | 58 | 1011.9 |
| 20260507195503 | 60 | 0 | 0.0 | 0.0 | 0.00 | 0.11 | 0.04 | 57 | 1011.9 |
| 20260507195003 | 61 | 0 | 0.0 | 0.0 | 0.00 | 0.11 | 0.04 | 57 | 1011.9 |
| 20260507194503 | 61 | 0 | 0.0 | 0.0 | 0.00 | 0.11 | 0.04 | 57 | 1011.8 |
| 20260507194003 | 61 | 0 | 0.0 | 0.0 | 0.00 | 0.11 | 0.04 | 57 | 1011.7 |
| 20260507193503 | 61 | 0 | 0.0 | 0.0 | 0.00 | 0.11 | 0.04 | 57 | 1011.7 |
| 20260507193003 | 61 | 0 | 0.0 | 0.0 | 0.00 | 0.11 | 0.04 | 57 | 1011.6 |
| 20260507192503 | 61 | 0 | 0.0 | 0.0 | 0.00 | 0.11 | 0.04 | 56 | 1011.4 |
| 20260507192003 | 61 | 0 | 0.0 | 0.0 | 0.00 | 0.11 | 0.04 | 56 | 1011.5 |
| 20260507191503 | 61 | 0 | 0.0 | 0.0 | 0.00 | 0.11 | 0.04 | 56 | 1011.3 |
| 20260507191003 | 61 | 0 | 0.0 | 0.0 | 0.00 | 0.11 | 0.04 | 56 | 1011.2 |
| 20260507190504 | 61 | 0 | 0.0 | 0.0 | 0.00 | 0.11 | 0.04 | 56 | 1011.1 |
| 20260507190004 | 61 | 0 | 0.0 | 0.0 | 0.00 | 0.11 | 0.04 | 56 | 1011.4 |
| 20260507185503 | 62 | 0 | 0.0 | 0.0 | 0.00 | 0.11 | 0.04 | 55 | 1011.2 |
| 20260507185025 | 62 | 0 | 0.0 | 0.0 | 0.00 | 0.11 | 0.04 | 55 | 1011.2 |
| 20260507184503 | 62 | 0 | 0.0 | 0.0 | 0.00 | 0.11 | 0.04 | 54 | 1011.2 |
| 20260507184003 | 63 | 0 | 0.0 | 0.0 | 0.00 | 0.11 | 0.04 | 53 | 1011.1 |
| 20260507183503 | 63 | 0 | 0.0 | 0.0 | 0.00 | 0.11 | 0.04 | 53 | 1011.0 |
| 20260507183003 | 64 | 263 | 1.0 | 3.0 | 0.00 | 0.11 | 0.04 | 49 | 1011.0 |
| 20260507182503 | 64 | 251 | 1.0 | 3.0 | 0.00 | 0.12 | 0.04 | 49 | 1010.9 |
| 20260507182003 | 64 | 245 | 3.0 | 5.0 | 0.00 | 0.12 | 0.04 | 48 | 1010.8 |
| 20260507181504 | 65 | 268 | 4.0 | 5.0 | 0.00 | 0.14 | 0.04 | 48 | 1011.0 |
| 20260507181003 | 65 | 306 | 3.0 | 4.0 | 0.00 | 0.17 | 0.04 | 47 | 1010.8 |
| 20260507180503 | 66 | 307 | 4.0 | 5.0 | 0.00 | 0.20 | 0.04 | 46 | 1010.7 |
| 20260507180003 | 66 | 275 | 5.0 | 6.0 | 0.00 | 0.20 | 0.04 | 46 | 1010.5 |
| 20260507175503 | 66 | 245 | 5.0 | 7.0 | 0.00 | 0.21 | 0.04 | 45 | 1010.6 |
| 20260507175003 | 67 | 246 | 6.0 | 7.0 | 0.00 | 0.22 | 0.04 | 45 | 1010.5 |
| 20260507174503 | 67 | 251 | 5.0 | 7.0 | 0.00 | 0.22 | 0.04 | 45 | 1010.6 |
| 20260507174003 | 67 | 237 | 3.0 | 7.0 | 0.00 | 0.24 | 0.04 | 45 | 1010.4 |
| 20260507173503 | 67 | 236 | 3.0 | 5.0 | 0.00 | 0.25 | 0.04 | 45 | 1010.3 |
| 20260507173024 | 68 | 263 | 4.0 | 6.0 | 0.00 | 0.26 | 0.04 | 45 | 1010.3 |
| 20260507172503 | 68 | 276 | 6.0 | 7.0 | 0.00 | 0.27 | 0.04 | 44 | 1010.3 |
| 20260507172003 | 68 | 262 | 6.0 | 7.0 | 0.00 | 0.27 | 0.04 | 44 | 1010.2 |
| 20260507171503 | 69 | 263 | 5.0 | 7.0 | 0.00 | 0.28 | 0.04 | 44 | 1010.2 |
| 20260507171024 | 69 | 298 | 6.0 | 7.0 | 0.00 | 0.28 | 0.04 | 44 | 1010.3 |
| 20260507170503 | 69 | 281 | 6.0 | 7.0 | 0.00 | 0.28 | 0.04 | 44 | 1010.3 |
| 20260507170003 | 69 | 260 | 6.0 | 7.0 | 0.00 | 0.28 | 0.04 | 44 | 1010.3 |
| 20260507165503 | 69 | 282 | 7.0 | 9.0 | 0.00 | 0.28 | 0.04 | 44 | 1010.2 |
| 20260507165003 | 69 | 271 | 8.0 | 9.0 | 0.00 | 0.28 | 0.04 | 43 | 1010.3 |
| 20260507164524 | 69 | 252 | 8.0 | 10.0 | 0.00 | 0.28 | 0.04 | 43 | 1010.3 |
| 20260507164003 | 69 | 239 | 8.0 | 10.0 | 0.00 | 0.28 | 0.04 | 43 | 1010.3 |
| 20260507163524 | 69 | 237 | 8.0 | 10.0 | 0.00 | 0.28 | 0.04 | 43 | 1010.2 |
| 20260507163003 | 70 | 250 | 5.0 | 9.0 | 0.00 | 0.28 | 0.04 | 43 | 1010.2 |
| 20260507162503 | 70 | 269 | 4.0 | 8.0 | 0.00 | 0.28 | 0.04 | 43 | 1010.1 |
| 20260507162003 | 70 | 294 | 4.0 | 5.0 | 0.00 | 0.28 | 0.04 | 43 | 1010.1 |
| 20260507161503 | 70 | 314 | 5.0 | 6.0 | 0.00 | 0.28 | 0.04 | 42 | 1010.2 |
| 20260507161003 | 70 | 322 | 5.0 | 6.0 | 0.00 | 0.28 | 0.04 | 42 | 1010.2 |
| 20260507160503 | 70 | 271 | 5.0 | 8.0 | 0.00 | 0.28 | 0.04 | 43 | 1010.2 |
| 20260507160003 | 70 | 233 | 5.0 | 8.0 | 0.00 | 0.28 | 0.04 | 43 | 1010.1 |
| 20260507155503 | 70 | 208 | 6.0 | 9.0 | 0.00 | 0.28 | 0.04 | 43 | 1010.0 |
| 20260507155003 | 70 | 226 | 6.0 | 9.0 | 0.00 | 0.28 | 0.04 | 43 | 1010.1 |
| 20260507154503 | 70 | 271 | 3.0 | 7.0 | 0.00 | 0.28 | 0.04 | 44 | 1010.2 |
| 20260507154003 | 70 | 235 | 3.0 | 7.0 | 0.00 | 0.28 | 0.04 | 44 | 1010.2 |
| 20260507153504 | 70 | 227 | 6.0 | 10.0 | 0.00 | 0.28 | 0.04 | 44 | 1010.1 |
| 20260507153003 | 70 | 248 | 8.0 | 10.0 | 0.00 | 0.28 | 0.04 | 43 | 1010.1 |
| 20260507152503 | 71 | 274 | 5.0 | 10.0 | 0.00 | 0.28 | 0.04 | 44 | 1010.2 |
| 20260507152024 | 71 | 294 | 3.0 | 4.0 | 0.00 | 0.28 | 0.04 | 45 | 1010.2 |
| 20260507151503 | 71 | 261 | 3.0 | 10.0 | 0.00 | 0.28 | 0.04 | 45 | 1010.2 |
| 20260507151003 | 70 | 245 | 4.0 | 10.0 | 0.00 | 0.28 | 0.04 | 44 | 1010.2 |
| 20260507150503 | 70 | 272 | 3.0 | 5.0 | 0.00 | 0.28 | 0.04 | 46 | 1010.4 |
| 20260507150024 | 70 | 305 | 5.0 | 10.0 | 0.00 | 0.28 | 0.04 | 46 | 1010.2 |
| 20260507145503 | 70 | 309 | 6.0 | 10.0 | 0.00 | 0.28 | 0.04 | 44 | 1010.3 |
| 20260507145018 | 70 | 290 | 6.0 | 8.0 | 0.00 | 0.28 | 0.04 | 45 | 1010.2 |
| 20260507144503 | 70 | 273 | 5.0 | 8.0 | 0.00 | 0.28 | 0.04 | 46 | 1010.3 |
| 20260507144003 | 70 | 328 | 3.0 | 7.0 | 0.00 | 0.28 | 0.04 | 47 | 1010.2 |
| 20260507143524 | 70 | 141 | 3.0 | 4.0 | 0.00 | 0.28 | 0.04 | 46 | 1010.2 |
| 20260507143003 | 70 | 170 | 4.0 | 8.0 | 0.00 | 0.28 | 0.04 | 46 | 1010.5 |
| 20260507142503 | 70 | 224 | 3.0 | 8.0 | 0.00 | 0.28 | 0.04 | 46 | 1010.5 |
| 20260507142003 | 70 | 299 | 2.0 | 4.0 | 0.00 | 0.28 | 0.04 | 48 | 1010.4 |
| 20260507141524 | 69 | 223 | 3.0 | 8.0 | 0.00 | 0.28 | 0.04 | 48 | 1010.3 |
| 20260507141024 | 69 | 233 | 6.0 | 8.0 | 0.00 | 0.28 | 0.04 | 49 | 1010.4 |
| 20260507140503 | 70 | 240 | 6.0 | 8.0 | 0.00 | 0.28 | 0.04 | 50 | 1010.7 |
| 20260507140003 | 70 | 242 | 5.0 | 8.0 | 0.00 | 0.28 | 0.04 | 50 | 1010.5 |
| 20260507135503 | 70 | 250 | 4.0 | 8.0 | 0.00 | 0.28 | 0.04 | 51 | 1010.6 |
| 20260507135003 | 70 | 248 | 4.0 | 5.0 | 0.00 | 0.28 | 0.04 | 52 | 1010.5 |
| 20260507134503 | 69 | 287 | 3.0 | 5.0 | 0.00 | 0.28 | 0.04 | 52 | 1010.6 |
| 20260507134003 | 69 | 297 | 4.0 | 8.0 | 0.00 | 0.28 | 0.04 | 51 | 1010.7 |
| 20260507133503 | 68 | 304 | 6.0 | 8.0 | 0.00 | 0.28 | 0.04 | 51 | 1010.8 |
| 20260507133003 | 69 | 302 | 5.0 | 8.0 | 0.00 | 0.28 | 0.04 | 51 | 1010.9 |